Location: Zagreb
(45.8000°N, 16.0000°E)
Time: 02:26:57
(UTC+02:00)

Transit 2A Rocket - Pass Details

Date: 25 January 2022
Orbit: 592 x 909 km, 66.7° (Epoch: 26 May)

Event Time Altitude Azimuth Distance (km) Brightness Sun altitude
Rises 21:01:48 0° 268° (W) 3,529 9.1 -43.2°
Reaches altitude 10° 21:05:11 10° 287° (WNW) 2,599 8.3 -43.7°
Enters shadow 21:07:52 17° 312° (NW) 2,136 7.7 -44.2°
Maximum altitude 21:09:16 18° 329° (NNW) 2,063 - -44.4°
Drops below altitude 10° 21:13:20 10° 12° (NNE) 2,571 - -45.0°
Sets 21:16:40 0° 30° (NNE) 3,477 - -45.6°
